Regional Weather Roundup
Issued by NWS

Home | Current Version | Previous Version | Text Only | Print | Product List | Glossary Off
Versions: 1 2 3 4 5 6 7 8 9 10 11 12 13 14 15 16 17 18 19 20 21 22 23 24 25 26 27 28 29 30 31 32 33 34 35 36 37 38 39 40 41 42 43 44 45 46 47 48 49 50

871
ASUS45 KBOU 252207
RWRCO

WEATHER ROUNDUP FOR COLORADO
NATIONAL WEATHER SERVICE DENVER/BOULDER CO
400 PM MDT MON JUL 25 2016

NOTE: "FAIR" INDICATES FEW OR NO CLOUDS BELOW 12000 FEET WITH NO
SIGNIFICANT WEATHER AND/OR OBSTRUCTIONS TO VISIBILITY.

COZ001>005-013-030-031-252300-
...NORTHWEST COLORADO...

CITY           SKY/WX    TMP DP  RH WIND       PRES   REMARKS
CRAIG          FAIR      91  23   8 VRB3      30.20F
HAYDEN         FAIR      90  27  10 W8        30.23F
MEEKER         FAIR      87  40  19 SE9G21    30.25R
MOUNT WERNER   NOT AVBL
STEAMBOAT SPGS FAIR      89  31  12 SW9       30.26F
WALDEN         FAIR      82  23  11 W13G23    30.38F
$$

COZ006>008-011-252300-
...WEST CENTRAL VALLEYS...

CITY           SKY/WX    TMP DP  RH WIND       PRES   REMARKS
GRAND JUNCTION FAIR      96  41  15 SW8       30.07F
MONTROSE       FAIR      90  42  18 S16       30.19F
EAGLE          PTSUNNY   86  30  13 W16G31    30.27S
RIFLE          FAIR      95  33  11 NE17      30.15F
DELTA          FAIR      94  42  16 S10       30.12F
NUCLA          LGT RAIN N/A N/A N/A SE5       30.23R
$$

COZ017>023-064>068-252300-
...SOUTHWEST COLORADO...

CITY           SKY/WX    TMP DP  RH WIND       PRES   REMARKS
DURANGO        FAIR      89  38  16 NW12      30.23F
CORTEZ         FAIR      89  45  21 CALM      30.17F
PAGOSA SPRINGS FAIR      85  28  12 N9G17     30.34F
TELLURIDE      PTSUNNY   67  43  41 CALM      30.52F
WOLF CREEK PAS FAIR      57  34  41 NE14G20   30.74F
$$

COZ009-010-012-014-032>034-037-058>063-252300-
...CENTRAL COLORADO...

CITY           SKY/WX    TMP DP  RH WIND       PRES   REMARKS
ASPEN          PTSUNNY   79  37  22 SE14      30.36F
BUENA VISTA    CLOUDY    75  33  21 CALM      30.41F
COPPER MTN     CLOUDY    64  30  27 S13       30.74F
BERTHOUD PASS  FAIR      55  41  58 N18G29    30.77F
COTTONWOOD PAS CLOUDY    72  25  17 S5        30.57F
GUNNISON       CLOUDY    73  39  29 NW13G18   30.44R
KREMMLING      FAIR      82  19   9 SW7       30.32F
LEADVILLE      FAIR      65  34  31 S10       30.57F
MONARCH PASS   PTSUNNY   59  34  38 MISG      30.84S
SALIDA         CLOUDY    79  37  21 N15       30.44S
SUNLIGHT       FAIR      72  32  23 N10G18    30.66S
WILKERSON PASS PTSUNNY   61  28  29 N10G16    30.70F
$$

COZ069>075-252300-
...SAN LUIS VALLEY/SANGRE DE CRISTO MOUNTAINS...

CITY           SKY/WX    TMP DP  RH WIND       PRES   REMARKS
ALAMOSA        FAIR      88  35  15 N7        30.29F
LA VETA PASS   FAIR      70  36  28 NE8       30.56S
SAGUACHE       FAIR      81  36  19 S6        30.36F
$$

COZ035-036-038>040-252300-
...NORTHERN COLORADO FRONT RANGE...

CITY           SKY/WX    TMP DP  RH WIND       PRES   REMARKS
DENVER INTL AP FAIR      96  40  14 N14       30.11F
DMNS CITY PARK   N/A     85  56  37 NW13G18   30.14R
AURORA         MOSUNNY   93  53  26 W14       30.14F
FRONT RANGE AP NOT AVBL
ERIE MUNI ARPT FAIR      86  55  35 N3        30.13F
BOULDER MUN AP FAIR      86  54  32 CALM      30.14F
CENTENNIAL     FAIR      93  32  11 VRB3      30.17F
BROOMFIELD     PTSUNNY   82  55  39 N7        30.18F
LONGMONT       FAIR      88  55  32 CALM      30.14F
$$

COZ041-046-047-076>085-087-088-252300-
...PIKES PEAK/PALMER DIVIDE AND SOUTHERN FOOTHILLS...

CITY           SKY/WX    TMP DP  RH WIND       PRES   REMARKS
COLO. SPRINGS  PTSUNNY   88  43  20 W6        30.24R
A. F. ACADEMY  PTSUNNY   80  40  23 NW20G46   30.28F
SCHRIEVER AFB  NOT AVBL
ELLICOTT       FAIR     N/A N/A N/A SE17G23   30.22S THUNDER
FALCON         CLOUDY    82  40  22 NW9       30.30F THUNDER
FORT CARSON    PTSUNNY   86  52  31 SE16      30.19R
LIMON          NOT AVBL
MONUMENT HILL  FAIR      82  39  21 SW13G18   30.29F
TRINIDAD       NOT AVBL
$$

COZ042>045-048>051-090-091-252300-
...NORTHEAST COLORADO...

CITY           SKY/WX    TMP DP  RH WIND       PRES   REMARKS
GREELEY ARPT   FAIR      93  55  27 S6        30.10F
AKRON          FAIR      85  60  42 SE20G30   30.13F
BURLINGTON     FAIR      81  63  54 SE20      30.15F
WRAY           FAIR      88  61  40 SE16G26   30.11F
STERLING       FAIR      88  63  42 S15G21    30.08F
HOLYOKE        FAIR      86  63  45 W17G26    30.11
FORT MORGAN    FAIR      90  58  34 E16G23    30.10F
$$

COZ086-089-092>099-252300-
...SOUTHEAST COLORADO...

CITY           SKY/WX    TMP DP  RH WIND       PRES   REMARKS
PUEBLO         FAIR      94  56  27 SE23G30   30.08F
LA JUNTA       FAIR      92  59  33 E17       30.07F
LAMAR          FAIR      89  63  41 SE17G25   30.08F
SPRINGFIELD      N/A     86  61  42 SE13G21   30.13F
$$




USA.gov is the U.S. government's official web portal to all federal, state and local government web resources and services.